Theta_e
328 328 326 325 324 324 323 323 323 323 322 322 321 321 321 321 321 321 322 322 321 321 322 323 325 327 326 321 320 325 346 350 340 328 331 331 331 330 325 327 328 326 330 333 335 335 334
327 327 327 326 325 324 323 323 323 322 321 321 320 320 320 320 320 321 321 320 320 320 322 323 325 326 327 313 322 329 326 334 332 330 332 333 332 332 328 327 326 330 330 332 335 334 333
325 326 326 326 325 324 323 323 322 322 320 320 320 320 320 320 320 320 320 319 319 320 322 324 326 326 318 315 321 328 327 328 335 333 331 334 336 332 329 326 330 330 327 330 332 333 331
323 324 324 325 325 324 323 323 322 321 320 319 319 319 319 319 319 319 318 318 318 322 324 326 327 325 316 319 322 321 328 327 329 332 333 336 337 332 330 330 327 325 325 320 328 332 334
322 323 323 323 323 323 323 322 321 319 319 318 318 318 318 318 318 317 316 317 320 325 326 326 326 322 314 318 316 322 327 326 328 330 333 333 333 329 328 322 321 322 311 318 322 331 331
323 322 322 322 323 322 321 320 318 318 318 318 318 317 317 317 316 315 315 316 322 323 326 327 324 316 317 313 319 320 326 326 325 327 327 328 328 325 324 321 311 317 316 317 317 324 327
319 319 320 319 319 317 317 317 316 317 317 317 317 317 316 316 315 314 318 325 321 321 322 317 317 314 313 318 321 318 323 324 325 325 320 326 321 318 321 322 322 321 318 316 319 322 322
316 316 317 316 316 316 315 316 316 316 317 317 317 316 315 315 314 314 319 320 318 318 312 319 318 318 319 319 314 316 323 319 319 317 323 321 317 323 324 323 320 320 317 317 320 321 322
314 314 315 315 315 314 314 316 316 317 316 316 316 315 314 313 313 318 322 320 324 324 313 316 317 316 317 318 313 315 318 320 318 318 319 317 320 323 323 321 318 319 318 317 316 320 322
314 314 314 314 313 313 314 316 316 316 315 315 315 314 313 311 315 324 322 324 326 324 309 310 310 314 316 316 311 319 320 318 316 314 318 318 322 321 320 319 320 315 321 318 317 317 312
313 313 313 313 312 313 314 315 315 315 314 314 314 313 311 310 318 321 323 326 325 321 299 310 312 319 317 312 314 314 320 317 313 313 315 314 317 318 318 319 321 318 321 319 318 316 316
314 313 313 313 312 314 314 314 314 314 314 314 313 312 310 319 323 325 325 326 322 305 297 307 312 310 311 312 312 315 314 318 318 314 315 315 320 320 320 321 322 323 319 318 318 316 309
314 313 313 313 314 314 314 314 314 313 312 312 311 309 310 319 322 326 326 321 306 300 309 307 308 310 310 309 310 311 310 309 308 305 308 311 313 318 320 316 320 320 315 308 306 306 305
315 315 314 314 314 314 315 314 313 312 311 310 308 307 315 320 326 325 322 312 301 305 305 312 310 309 307 311 309 309 309 307 311 311 309 306 304 313 317 316 314 316 314 307 302 303 306
315 316 316 315 315 315 315 314 313 312 311 309 307 323 322 326 326 325 316 304 305 307 308 307 309 306 307 309 308 309 308 308 311 312 307 307 307 315 316 317 316 313 310 314 309 311 308
314 314 314 315 315 315 315 314 313 312 310 309 317 321 324 327 327 321 310 302 309 310 309 309 305 308 307 307 306 307 308 311 310 313 314 311 306 313 314 317 316 313 317 309 309 303 302
314 314 314 314 315 314 314 314 314 312 310 308 319 317 324 327 324 316 306 307 309 312 310 307 306 307 309 307 308 307 307 310 312 312 314 312 310 310 313 311 310 311 310 312 312 310 305
314 314 315 315 315 314 314 314 313 311 308 310 320 315 323 326 312 314 310 311 300 310 312 310 309 309 308 308 308 309 307 310 313 313 309 312 310 306 309 315 316 314 312 312 306 307 312
314 314 314 315 315 315 314 313 312 310 309 317 317 319 324 323 309 310 313 310 310 309 309 310 308 310 311 309 307 311 311 315 314 312 310 312 307 303 306 311 313 311 313 313 312 313 310
313 313 313 315 315 315 314 313 311 310 309 314 318 315 317 318 318 312 309 308 308 311 310 313 312 312 310 310 312 311 311 314 314 314 325 314 309 306 303 307 311 308 310 312 312 308 310
313 313 313 313 314 314 314 314 312 310 309 314 321 316 318 314 313 313 312 311 308 308 314 314 312 311 309 307 309 310 313 314 315 315 314 311 306 309 309 310 311 310 309 310 309 310 308
312 312 312 313 313 314 314 313 312 311 308 318 314 312 317 315 317 313 307 310 310 310 312 312 311 313 311 309 313 313 313 314 314 317 314 313 306 309 307 309 309 307 309 310 310 311 312
312 312 312 312 312 313 314 313 313 311 310 312 312 316 314 311 315 313 312 312 310 314 315 317 316 314 312 314 319 322 323 322 321 317 317 314 310 307 304 309 308 304 308 309 311 313 313
311 312 312 312 312 312 313 314 313 312 310 314 313 313 311 309 315 311 312 315 314 316 315 317 318 316 318 321 320 321 321 320 321 320 320 316 314 311 305 308 299 309 315 313 311 312 315
310 311 311 312 312 312 313 313 314 313 312 314 315 311 309 303 308 308 310 311 314 316 316 316 318 321 323 320 314 310 311 313 315 317 317 319 315 310 306 305 309 310 313 313 311 311 316
309 311 311 311 312 312 312 312 313 313 312 313 314 314 311 305 308 308 306 310 309 312 313 314 320 323 322 316 312 306 302 308 308 311 317 317 317 312 310 305 302 312 316 319 318 308 318
309 310 311 311 311 312 312 312 312 312 312 312 314 314 310 305 308 310 308 310 314 313 312 315 316 318 321 313 309 307 306 311 305 307 310 311 312 309 308 307 312 318 319 320 308 311 320
309 310 310 310 311 311 311 312 312 312 312 311 313 315 308 305 307 308 308 306 307 309 308 315 314 315 314 310 310 310 309 310 309 312 306 311 308 308 309 307 304 321 319 315 320 323 323
310 310 311 311 311 311 311 311 312 312 311 311 310 314 313 305 306 310 310 310 310 311 308 309 312 316 319 315 314 313 310 313 313 305 317 306 309 311 312 311 323 324 324 326 330 331 333
Wind_Speed
9 8 6 7 8 12 13 14 15 16 17 18 18 19 19 20 21 21 20 20 19 20 18 17 18 15 11 10 4 9 7 6 12 13 14 14 15 9 4 8 6 13 7 9 7 8 9
11 10 9 8 8 10 13 14 15 16 17 18 18 19 19 20 21 21 20 21 19 19 18 16 16 16 9 15 6 6 1 7 10 13 13 13 8 10 4 5 8 7 3 8 8 6 6
12 12 11 9 9 9 9 12 15 16 17 18 19 19 20 22 22 22 22 21 21 18 16 14 12 8 10 4 2 5 6 8 9 12 14 7 8 14 3 10 2 7 11 9 6 5 2
13 12 11 11 10 8 10 10 13 15 17 18 19 20 21 22 23 24 24 22 20 14 11 11 8 10 9 4 6 8 11 10 10 9 11 7 8 14 11 1 8 14 10 9 10 6 3
14 12 12 12 12 12 10 12 14 15 16 18 20 21 22 23 23 24 24 22 18 9 7 7 9 9 9 5 11 11 7 12 12 12 9 5 11 16 7 15 16 12 10 8 12 7 3
15 14 13 14 13 12 13 14 15 16 17 18 20 21 22 24 25 25 26 21 4 6 9 8 8 9 7 12 6 6 8 10 11 13 12 13 13 16 14 15 1 22 5 11 1 9 7
16 17 17 16 16 15 15 16 16 17 17 19 20 22 23 25 26 25 17 6 9 9 13 14 1 7 2 1 6 12 14 13 14 14 18 18 16 16 20 14 11 6 8 2 5 3 8
15 16 16 16 16 17 16 16 16 17 17 19 20 23 24 26 26 26 11 6 7 7 11 13 13 13 7 4 8 12 13 15 18 20 21 21 18 19 16 5 6 11 8 10 5 4 8
14 16 16 16 16 17 17 16 17 17 17 18 20 22 25 27 28 13 7 7 7 9 9 9 11 13 13 12 13 17 17 21 18 22 23 23 17 19 16 8 12 13 13 4 6 10 18
16 14 14 15 16 17 17 17 16 15 17 19 20 21 23 29 10 8 3 3 8 3 8 15 12 9 9 11 14 15 20 21 17 21 24 23 20 18 18 15 15 18 11 3 11 14 3
14 14 15 15 16 15 16 17 17 18 19 20 20 20 20 13 13 6 8 8 9 7 9 10 12 7 7 15 7 20 13 22 21 18 18 23 19 22 17 17 18 15 3 8 12 14 19
13 14 16 15 16 16 17 18 18 19 20 20 21 19 21 6 10 9 8 9 7 9 6 9 8 12 13 17 11 15 16 18 16 20 18 19 15 23 16 19 18 13 15 9 14 15 15
12 13 14 16 17 16 17 18 19 20 21 22 22 20 11 9 3 8 9 8 9 12 5 8 9 9 16 14 20 14 19 21 19 19 20 19 18 12 15 20 22 21 15 12 15 15 3
14 12 12 12 15 17 18 19 20 21 23 24 25 21 6 9 6 8 9 10 11 1 1 4 3 6 12 12 18 17 20 21 24 22 16 18 19 19 18 20 17 18 18 15 18 17 9
15 15 16 12 15 17 19 20 21 23 24 24 30 8 8 5 5 6 9 11 11 10 6 5 8 11 13 8 7 17 21 21 23 25 22 18 20 18 19 17 21 19 19 21 26 26 9
15 16 15 16 16 18 20 21 23 25 26 23 7 6 4 1 5 7 10 15 11 3 8 9 15 3 10 16 13 16 17 18 22 23 19 20 13 17 17 15 17 20 15 12 14 22 17
15 16 16 16 17 18 20 22 24 26 28 20 7 7 6 6 7 8 10 14 10 7 4 9 5 6 12 2 10 15 17 8 14 13 17 22 12 16 15 17 20 16 18 15 20 15 16
12 15 16 16 18 19 21 22 23 25 31 10 7 4 6 6 9 9 12 14 4 9 7 11 5 12 11 5 11 14 12 11 15 17 18 19 13 15 16 15 18 24 21 22 15 17 14
14 15 16 16 17 19 21 22 24 24 20 9 7 3 5 6 8 9 10 8 7 13 9 6 9 8 2 9 6 13 7 5 2 12 13 16 13 15 18 19 21 12 19 21 23 18 17
15 15 16 16 17 18 21 23 24 24 18 7 7 5 6 7 9 10 9 8 12 10 13 8 10 12 10 12 11 8 7 6 5 14 11 9 17 15 16 17 14 20 21 17 19 16 14
14 15 16 17 17 19 21 23 24 27 25 6 2 6 6 3 6 7 6 9 7 7 11 7 10 14 16 13 14 13 13 6 11 5 8 16 17 17 18 20 14 20 20 22 24 22 20
13 14 15 16 17 18 19 21 24 29 35 5 7 6 8 10 8 7 5 10 11 8 4 12 11 14 10 11 16 11 7 5 7 10 14 16 16 14 20 14 19 13 16 18 23 23 21
12 13 14 15 16 17 18 19 21 25 26 5 6 5 6 5 10 8 3 9 8 9 7 12 11 6 4 12 12 16 14 16 16 8 10 12 13 15 14 17 17 21 22 18 20 21 17
12 12 13 14 15 16 17 18 19 20 20 10 6 8 7 10 3 8 10 6 12 10 11 9 3 9 13 15 16 18 20 21 19 17 15 12 10 10 13 14 20 17 16 17 20 20 18
12 12 12 13 14 15 16 17 17 17 19 11 5 6 6 8 12 11 8 10 13 13 13 15 16 12 10 12 14 15 15 19 22 19 18 14 11 9 12 13 15 15 17 14 17 18 17
10 11 12 12 13 14 15 16 16 15 18 11 5 6 6 8 6 8 11 12 11 11 13 15 11 12 10 10 12 15 15 19 18 20 20 19 15 11 12 13 15 16 18 13 15 16 18
9 10 11 12 13 12 13 14 15 15 15 11 3 8 6 9 10 5 6 10 11 9 10 13 7 8 16 11 13 14 15 21 18 21 16 12 13 14 13 12 13 14 8 17 16 11 18
10 10 11 11 12 12 12 12 13 13 14 11 6 4 7 7 14 18 16 13 11 11 9 10 8 13 10 13 13 14 12 15 20 18 1 16 16 13 14 17 18 6 9 7 3 11 10
9 10 10 11 11 11 11 11 11 11 12 12 6 4 5 7 11 19 20 21 21 18 13 10 14 12 7 7 8 11 12 11 18 15 12 1 6 11 5 5 16 8 9 10 12 12 13
Wind_Direction
18 8 10 15 27 6 2 360 357 355 352 350 347 342 336 335 333 330 326 323 320 316 312 309 306 315 304 222 245 129 180 148 182 214 245 265 287 294 87 94 159 102 95 98 103 87 91
17 13 13 13 6 17 1 357 356 354 351 347 342 338 335 333 331 328 325 321 318 311 303 299 299 310 247 252 81 153 149 186 203 216 239 255 333 335 324 38 47 99 88 121 136 117 113
12 14 15 6 358 359 4 357 353 350 348 343 340 337 334 331 329 326 324 320 315 306 294 285 288 290 262 290 319 210 230 226 202 221 255 244 306 287 309 146 30 172 159 158 140 152 159
3 359 2 357 351 345 341 349 353 347 343 340 338 335 332 330 327 324 321 317 313 303 285 270 267 267 267 71 316 245 230 222 216 235 256 313 277 284 273 16 185 218 259 158 117 147 184
355 353 355 352 348 346 358 353 352 346 342 339 336 334 330 327 326 322 317 312 301 284 266 251 243 234 250 129 215 217 233 230 198 212 220 287 255 260 191 231 204 218 189 89 146 154 167
8 11 6 4 8 19 6 358 352 344 340 338 335 331 328 327 324 320 316 295 284 251 222 228 267 259 228 216 163 234 219 250 217 212 213 223 234 243 232 239 261 301 112 125 19 124 195
19 19 18 12 10 8 360 354 348 344 341 336 334 330 328 327 322 319 323 223 210 193 214 264 35 280 123 154 222 213 209 210 237 218 217 210 233 236 242 228 6 309 336 50 96 116 274
19 13 11 9 4 360 355 348 342 339 339 336 332 330 328 326 319 314 285 323 37 352 297 264 245 257 281 288 235 211 192 208 210 218 218 232 226 244 250 81 253 254 246 240 212 207 261
11 9 3 1 358 353 347 340 336 335 336 333 330 329 328 324 317 289 326 32 340 319 259 216 214 228 213 211 233 193 195 209 212 221 218 231 210 236 259 191 243 244 252 301 325 300 256
9 2 358 357 356 350 340 333 332 335 334 331 329 328 330 324 298 340 242 349 319 327 268 162 194 196 186 226 230 244 191 215 233 227 227 235 239 237 212 234 234 258 232 198 266 279 255
14 7 2 359 354 344 334 342 342 340 334 329 326 325 326 325 317 276 14 320 321 248 263 145 126 101 165 208 112 190 207 221 226 219 238 233 227 240 236 230 238 255 141 289 288 285 281
0 4 2 1 354 337 343 343 339 336 331 325 320 320 326 206 216 278 307 305 256 230 247 141 141 190 190 212 220 162 198 233 233 240 235 252 232 238 221 240 243 252 260 261 258 260 264
351 351 355 353 351 351 344 340 337 333 327 320 315 312 297 307 346 339 300 256 228 247 94 158 190 187 213 179 215 180 197 199 214 218 218 218 238 237 248 234 240 236 234 243 237 234 211
346 340 341 347 345 340 337 335 334 330 326 320 313 311 190 254 302 291 270 235 249 163 192 62 264 235 238 214 211 194 202 208 217 213 221 216 214 210 213 239 237 212 238 245 252 255 52
360 4 355 346 345 339 335 335 330 329 329 326 308 193 223 153 214 258 246 228 230 276 20 280 264 240 200 220 254 195 216 213 213 228 228 227 224 199 210 216 237 234 217 245 259 268 210
1 358 356 355 346 344 341 337 333 332 330 332 300 257 133 290 219 228 240 254 292 350 314 256 271 246 231 189 203 208 204 221 223 213 240 257 272 202 188 229 229 250 263 227 246 262 272
360 358 354 351 346 343 342 341 337 334 329 329 250 233 75 177 207 227 238 238 244 171 265 285 280 278 281 315 219 216 236 215 230 189 228 247 238 242 183 204 230 216 238 250 270 234 262
351 356 351 349 346 345 344 343 341 340 335 276 286 239 124 214 219 224 242 245 20 283 187 263 277 287 289 330 267 265 230 217 192 229 211 234 251 225 204 231 218 250 218 234 244 252 260
6 353 351 349 348 347 347 344 342 343 355 313 291 26 154 244 247 222 238 291 272 263 234 244 244 242 279 273 273 271 236 86 115 253 242 217 231 253 235 202 221 230 255 219 242 250 254
355 355 353 353 351 351 348 345 342 340 348 295 277 208 146 211 281 287 300 253 234 203 279 291 277 274 257 255 236 279 242 198 232 236 345 293 244 231 248 227 213 207 235 255 265 259 242
353 354 355 356 356 354 352 348 345 340 338 286 279 36 3 204 216 263 305 299 266 242 197 254 250 245 254 245 248 209 246 244 194 168 240 239 251 247 257 269 254 240 213 226 243 251 260
351 353 355 356 358 356 355 354 352 343 334 258 331 338 343 285 272 260 212 263 255 277 262 272 219 285 222 261 277 327 271 249 225 176 214 221 247 250 250 252 255 250 254 244 222 241 249
347 350 353 356 358 360 358 359 358 353 339 356 3 308 277 289 271 247 8 309 262 298 297 285 311 316 275 267 324 320 321 310 307 293 282 224 228 247 243 245 244 242 239 239 250 246 229
343 344 348 353 358 358 358 359 1 356 357 321 19 296 285 295 284 301 330 312 307 303 303 318 324 274 278 334 308 273 252 251 251 253 252 249 260 259 250 241 243 251 243 222 249 244 241
334 338 341 344 349 352 354 356 360 356 347 323 5 327 319 296 332 294 297 294 289 278 249 253 258 277 295 286 272 254 252 243 222 234 240 231 249 246 254 238 255 241 247 244 225 233 242
330 332 333 337 340 346 349 354 356 357 347 318 43 322 299 304 70 343 308 303 290 288 278 250 249 249 280 274 263 245 245 239 220 218 224 229 208 256 261 277 251 243 245 205 231 251 245
318 322 326 332 334 337 341 345 350 356 346 324 339 354 284 291 276 328 298 335 323 301 282 292 318 292 246 252 254 248 234 257 244 229 201 199 245 217 227 250 260 278 301 229 202 247 219
316 321 321 325 326 327 334 338 341 347 348 329 333 28 328 296 294 289 279 276 270 248 272 318 311 220 257 257 253 259 250 240 246 249 44 235 201 225 236 246 250 138 329 261 244 250 271
302 311 314 319 320 321 324 328 331 336 339 336 297 14 325 268 293 316 287 278 273 276 293 286 292 308 326 295 259 276 284 279 288 263 223 38 250 248 306 212 342 331 285 307 32 352 348